Regional Weather Roundup
Issued by NWS Sioux Falls, SD

Home | Current Version | Previous Version | Text Only | Print | Product List | Glossary Off
Versions: 1 2 3 4 5 6 7 8 9 10 11 12 13 14 15 16 17 18 19 20 21 22 23 24 25 26 27 28 29 30 31 32 33 34 35 36 37 38 39 40 41 42 43 44 45 46 47 48 49 50

000
ASUS43 KFSD 240002
RWRFSD

WEATHER ROUNDUP FOR SE SOUTH DAKOTA/SW MINNESOTA/NW IOWA
NATIONAL WEATHER SERVICE SIOUX FALLS SD
600 PM CST MON JAN 23 2017

NOTE: "FAIR" INDICATES FEW OR NO CLOUDS BELOW 12,000 FEET WITH NO
SIGNIFICANT WEATHER AND OR OBSTRUCTIONS TO VISIBILITY.


SDZ038>040-050-052>070-240100-
SOUTHEAST SOUTH DAKOTA

CITY           SKY/WX    TMP DP  RH WIND       PRES   REMARKS
BROOKINGS      CLOUDY    30  26  85 SE5       29.80S WCI  25
CHAMBERLAIN    CLOUDY    32  30  92 E14G20    29.71S WCI  22
6HR MIN TEMP:  32; 6HR MAX TEMP:  34;

HURON          CLOUDY    31  28  89 E8        29.78S WCI  23
6HR MIN TEMP:  30; 6HR MAX TEMP:  31;

MADISON        CLOUDY    28  28 100 E9          N/A  WCI  20
MITCHELL       CLOUDY    32  29  88 SE13      29.78S WCI  22
6HR MIN TEMP:  32; 6HR MAX TEMP:  34;

SIOUX FALLS    CLOUDY    31  29  92 SE7       29.81S WCI  24
6HR MIN TEMP:  30; 6HR MAX TEMP:  32;

WINNER         CLOUDY    33  28  81 E13       29.69R WCI  24
YANKTON        MOCLDY    30  27  86 E9        29.79R WCI  22
$$

MNZ071-072-080-081-089-090-097-098-240100-
SOUTHWEST MINNESOTA

CITY           SKY/WX    TMP DP  RH WIND       PRES   REMARKS
FAIRMONT       CLOUDY    31  30  96 N3        29.83F
JACKSON        CLOUDY    30  28  93 CALM      29.82F
MARSHALL       CLOUDY    31  28  89 CALM      29.84S
6HR MIN TEMP:  31; 6HR MAX TEMP:  32;

MONTEVIDEO     CLOUDY    30  30 100 CALM      29.85S
PIPESTONE      CLOUDY    30  28  93 CALM      29.79S
REDWOOD FALLS  CLOUDY    33  27  78 CALM      29.84S
TRACY          CLOUDY    32  29  90 E3        29.82F
WINDOM         CLOUDY    30  28  93 CALM      29.82S
WORTHINGTON    CLOUDY    30  29  96 E3        29.81F
$$

IAZ001>003-012>014-020>022-031-032-NEZ013-014-SDZ071-240100-
NORTHWEST IOWA

CITY           SKY/WX    TMP DP  RH WIND       PRES   REMARKS
CHEROKEE       CLOUDY    32  31  96 CALM      29.83S
DENISON        CLOUDY    32  30  93 E5        29.80S WCI  27
ESTHERVILLE    CLOUDY    31  30  96 N3        29.81F
LE MARS        CLOUDY    32  28  86 VRB5      29.83S WCI  27
ORANGE CITY    CLOUDY    30  28  93 SE3       29.81F
SHELDON        CLOUDY    32  32 100 SE5       29.81R WCI  27
SIOUX CITY     CLOUDY    34  29  82 E6        29.81F WCI  29
6HR MIN TEMP:  33; 6HR MAX TEMP:  35;

SPENCER        CLOUDY    32  29  88 E3        29.82S
STORM LAKE     CLOUDY    32  30  93 SE3       29.81F
$$

ABBREVIATIONS USED IN REMARKS
   TC - TEMPERATURE IN CELSIUS
  WCI - WIND CHILL INDEX
   HX - HEAT INDEX
  VSB - VISIBILITY




USA.gov is the U.S. government's official web portal to all federal, state and local government web resources and services.